Theta_e
323 333 339 339 342 343 344 345 343 345 344 344 343 342 341 340 342 346 343 344 344 344 344 342 340 339 339 339 338 337 335 334 332 329 325 321 318 316 315 316 318 318 319 319 318 320 323 324 329
331 334 336 340 342 345 347 342 342 344 343 343 340 338 339 342 340 342 343 344 344 344 342 342 340 340 340 338 338 336 334 332 329 326 321 317 315 315 318 320 321 321 322 322 322 321 322 324 331
326 334 339 342 344 347 346 343 343 342 343 341 341 341 341 343 341 342 344 345 346 343 341 339 339 338 337 336 337 335 335 330 328 324 320 317 316 319 321 322 323 323 323 323 322 322 323 325 332
329 336 339 342 343 343 343 342 342 342 343 340 339 341 342 344 343 344 344 344 345 344 342 337 336 336 336 333 333 335 335 334 328 324 320 318 318 321 323 324 324 324 324 323 323 323 323 324 326
332 338 341 342 343 343 343 341 341 344 343 343 341 344 342 341 343 343 343 344 342 342 342 337 334 333 332 329 330 334 334 334 332 328 322 320 319 321 323 323 323 324 324 324 324 323 322 323 324
334 338 340 343 345 344 343 342 343 344 343 343 343 342 340 341 342 342 342 342 341 341 340 339 333 333 333 331 330 330 331 331 331 329 329 323 320 320 321 323 323 322 323 323 324 324 324 323 323
335 338 340 342 345 345 344 343 343 343 343 345 343 341 339 340 339 338 337 338 339 340 338 336 336 335 334 332 326 323 322 323 326 327 327 327 325 324 320 319 320 321 321 321 322 323 324 324 323
336 337 339 341 342 344 344 343 343 344 343 343 342 342 340 336 338 339 338 336 335 335 335 335 334 334 333 332 326 323 321 322 320 320 321 323 324 324 326 322 326 321 320 320 321 321 322 324 325
336 337 338 339 340 344 343 343 341 340 339 337 336 337 336 337 338 336 335 334 334 332 333 333 333 332 331 330 330 330 329 328 326 326 327 327 329 330 329 327 321 321 321 321 321 321 321 322 324
337 338 342 339 340 343 342 341 341 340 339 337 335 334 336 336 335 334 333 331 330 328 328 324 322 322 320 319 318 317 315 316 315 316 318 324 324 325 327 328 327 327 326 327 326 325 324 324 329
339 343 341 341 341 341 341 340 338 339 338 336 334 332 333 333 332 330 328 329 323 321 320 320 320 321 320 318 318 318 318 317 317 318 318 319 314 319 318 320 324 326 327 329 328 329 329 329 328
343 342 342 342 341 341 341 339 338 338 335 333 332 331 330 330 328 326 322 317 319 321 320 320 319 319 318 318 318 317 316 316 316 317 318 320 320 321 321 321 322 319 319 319 322 324 325 325 323
343 342 342 341 340 339 339 338 337 336 333 331 331 330 328 326 323 319 317 321 322 320 319 319 318 315 315 317 317 317 316 315 315 315 316 318 320 320 320 320 320 320 320 320 319 315 315 319 322
341 341 341 340 339 338 337 336 335 335 334 332 332 331 329 325 320 319 322 323 322 321 321 320 319 316 316 317 316 317 316 315 315 314 315 316 320 320 321 319 318 318 318 317 317 317 318 320 319
340 343 340 340 339 338 336 337 336 335 333 333 331 329 328 325 323 322 323 324 324 323 323 319 320 319 317 317 317 317 316 315 314 314 314 315 317 317 316 317 319 317 317 317 316 316 316 316 317
343 343 346 341 338 337 338 342 333 334 333 332 330 329 328 326 324 324 325 325 324 325 325 324 322 320 318 318 317 317 316 314 313 313 313 314 315 316 315 315 314 316 317 315 315 315 315 315 316
343 340 343 344 339 339 338 340 333 332 333 331 331 329 329 326 325 326 326 326 325 325 324 323 321 320 317 317 316 315 313 312 311 312 312 312 313 313 313 314 315 312 313 314 314 314 314 314 314
334 339 340 342 341 339 340 338 332 331 333 330 331 330 328 327 325 323 327 327 325 324 322 321 320 317 315 315 314 312 311 311 310 310 310 310 310 312 312 312 313 313 314 314 314 314 314 315 315
331 334 338 341 338 340 340 337 333 333 332 332 330 330 329 327 326 326 326 325 324 322 321 319 317 314 312 312 311 311 310 310 309 310 309 309 309 309 311 312 311 311 312 311 311 314 315 315 315
334 339 342 338 336 338 337 336 333 333 331 331 331 329 328 327 327 326 325 323 321 320 318 316 314 313 312 311 311 310 310 309 309 309 308 308 308 309 309 310 310 309 311 313 312 311 314 314 315
336 337 340 339 337 336 337 337 336 333 332 331 330 329 327 326 326 325 324 321 319 317 316 314 313 312 312 311 311 311 310 310 309 309 308 308 308 309 309 309 310 309 309 311 311 312 313 314 315
336 334 335 338 339 338 338 337 338 335 334 331 330 328 326 327 325 323 322 320 317 315 314 313 312 312 311 311 311 311 309 309 309 309 309 310 309 309 308 307 307 308 308 310 311 311 312 312 313
337 334 335 336 337 339 338 338 339 334 334 333 331 328 326 325 324 322 320 318 315 314 312 312 312 312 312 311 311 310 309 309 309 309 307 308 310 307 309 310 308 308 310 310 310 310 311 312 312
334 335 336 336 335 336 335 336 337 337 335 333 328 326 325 325 323 321 319 317 315 313 312 311 311 312 312 311 311 310 310 309 310 309 309 310 309 309 308 309 309 309 309 309 309 309 311 311 312
332 337 336 335 336 333 336 334 338 333 332 328 327 325 325 325 323 321 319 316 314 312 311 311 311 312 312 312 311 311 310 309 310 308 309 310 310 310 308 309 309 309 308 309 310 310 311 312 312
333 334 331 331 329 328 335 335 337 332 330 328 327 326 325 324 322 320 317 314 312 312 311 311 311 311 312 312 311 311 310 310 309 309 309 309 310 310 310 309 309 310 311 311 310 310 312 313 311
331 331 329 330 330 330 333 334 333 331 329 328 327 325 325 323 320 318 315 313 313 312 311 311 311 311 312 312 311 311 310 309 309 310 309 309 309 310 309 310 310 310 311 311 313 313 314 312 312
328 328 327 329 330 331 332 331 332 330 328 328 327 326 324 321 319 317 314 313 312 311 311 311 311 312 311 312 312 310 310 309 309 309 310 309 309 309 310 310 310 311 310 311 312 311 312 312 311
328 328 329 329 328 328 326 333 327 328 326 325 323 324 324 321 318 314 313 313 312 311 311 311 311 311 312 312 310 310 309 309 309 309 310 309 309 310 310 310 310 311 311 309 312 312 313 313 314
327 328 328 329 329 325 324 331 326 327 325 326 324 325 322 320 316 315 312 313 312 311 311 311 311 312 312 312 310 311 309 310 308 309 309 310 310 310 310 309 310 311 311 311 312 312 312 313 313
Wind_Speed
4 4 2 3 4 6 13 8 4 7 10 14 12 15 15 13 10 8 6 6 9 10 10 8 8 6 5 6 7 6 5 3 1 1 0 2 3 4 5 5 5 4 3 3 4 5 5 6 9
5 1 1 4 3 8 9 11 11 11 12 10 15 18 19 20 17 12 6 9 10 10 10 9 7 6 5 5 5 4 4 3 3 2 2 3 5 6 6 6 5 5 4 4 3 4 5 7 8
4 3 5 3 7 10 11 9 11 10 7 5 9 12 9 7 10 7 9 10 10 11 10 9 8 7 7 6 6 5 5 4 3 3 2 3 5 6 7 6 5 5 4 4 4 5 5 7 6
2 2 3 11 15 11 12 8 12 16 14 14 13 14 10 15 7 8 10 12 12 12 12 8 8 8 8 7 7 6 6 5 3 2 3 4 5 6 7 7 6 6 4 4 4 5 5 6 6
2 4 8 12 15 12 9 7 5 9 7 7 9 10 9 13 12 12 13 13 12 12 13 10 8 8 8 7 7 7 6 5 4 4 0 2 4 6 7 7 6 5 4 3 2 3 4 4 5
5 4 10 11 14 12 10 10 12 14 14 15 17 12 6 10 14 15 14 14 12 10 10 11 9 9 9 7 7 7 5 3 2 1 1 2 3 5 6 7 7 7 5 4 3 4 4 4 5
4 7 11 13 13 12 10 9 12 10 10 9 3 7 6 7 10 11 11 13 15 14 12 10 10 11 8 7 6 6 5 4 3 2 2 3 4 6 7 7 9 9 9 8 8 7 6 7 7
1 8 9 7 9 10 8 9 9 12 8 3 7 5 6 9 8 8 11 11 12 11 9 10 11 13 13 12 10 9 8 7 5 4 5 5 6 8 10 9 12 13 12 12 11 12 10 10 10
2 3 9 8 4 9 14 10 10 10 15 14 10 13 13 16 16 13 10 16 15 15 15 13 12 11 10 11 11 10 9 8 8 8 8 7 5 6 6 14 13 14 14 15 16 15 14 13 13
5 7 8 7 9 11 10 7 8 7 13 12 16 16 15 15 14 13 12 14 13 14 14 14 13 13 13 13 12 13 14 13 13 13 12 11 12 13 13 15 16 17 17 17 17 18 16 14 11
6 10 10 10 14 14 15 11 10 11 9 10 14 16 15 14 13 14 14 14 14 14 14 14 15 15 14 16 15 14 14 14 14 17 16 15 15 13 13 14 14 17 20 10 11 15 15 19 20
10 10 12 13 12 13 12 13 15 13 10 13 13 13 13 13 14 15 16 17 16 13 13 12 12 13 14 12 13 13 14 15 15 16 16 13 10 12 11 10 8 12 12 16 18 19 24 29 32
16 15 15 12 13 16 16 13 14 17 13 11 11 12 13 14 14 15 15 15 12 13 12 11 12 16 16 16 16 16 16 17 18 18 17 16 13 12 12 11 9 10 9 9 9 11 14 18 22
15 20 20 17 17 18 18 13 6 9 10 10 11 11 12 12 13 14 10 10 11 10 10 10 12 15 16 16 18 17 18 19 19 20 20 15 12 13 11 13 12 12 11 10 9 10 11 12 16
24 19 15 11 8 14 16 11 7 10 10 11 10 10 10 10 9 9 7 7 7 7 9 11 11 13 17 17 17 18 19 20 21 20 17 14 12 13 15 16 14 14 12 11 13 14 14 15 15
8 12 8 10 12 8 7 7 9 8 9 10 9 10 9 8 7 6 5 4 5 6 8 9 11 12 17 18 17 19 20 21 19 16 14 14 13 14 14 16 15 13 12 13 14 16 16 15 15
10 5 7 9 10 6 10 9 12 7 6 9 10 10 8 7 5 4 2 4 6 6 8 9 11 13 19 16 18 19 19 17 15 14 13 14 14 14 16 15 16 19 16 15 17 17 16 16 15
3 5 7 8 9 7 4 11 12 11 11 10 11 10 8 7 5 1 3 6 7 8 9 10 10 15 18 17 18 18 15 16 15 13 15 15 14 13 15 14 14 14 14 16 17 15 13 13 13
7 5 4 7 2 6 4 7 9 11 11 13 11 10 8 7 4 1 2 5 5 6 7 9 12 17 18 17 17 17 16 15 15 14 16 15 15 14 15 15 14 13 12 12 14 13 13 11 11
5 7 7 3 4 5 6 7 9 12 11 11 10 9 7 7 4 3 2 4 5 5 7 10 12 15 15 15 16 16 15 14 14 16 16 17 15 13 13 15 15 14 15 13 14 15 14 13 12
7 6 8 2 8 5 9 7 10 13 11 11 9 8 6 4 1 2 2 3 4 7 9 11 13 13 14 17 16 16 14 14 15 16 17 15 13 12 12 13 13 14 14 14 13 13 12 14 11
6 2 6 9 12 6 14 3 12 12 12 13 11 9 7 5 3 2 2 3 5 8 10 12 12 12 14 17 16 15 16 16 15 15 15 14 13 15 12 12 10 11 11 12 11 10 10 10 10
7 5 3 7 8 4 13 6 6 13 12 10 10 7 6 5 5 4 3 3 5 8 11 11 12 12 14 15 16 15 15 14 14 13 16 14 13 16 17 13 9 5 7 8 8 8 9 9 8
11 7 6 7 7 11 5 4 4 6 8 8 13 12 9 8 7 5 4 3 6 10 12 10 12 12 14 14 15 15 14 14 13 13 12 14 14 15 16 14 10 8 7 7 9 10 9 7 5
1 7 7 8 6 3 6 3 6 5 6 13 14 12 10 9 7 4 3 4 8 11 12 10 12 13 14 14 13 14 14 15 12 11 13 14 14 14 19 13 18 9 12 5 5 5 5 3 5
5 7 9 14 11 11 6 4 4 6 7 7 10 10 10 8 6 4 3 6 9 11 11 10 11 13 14 14 12 13 14 12 12 11 11 12 12 12 13 14 18 15 13 9 9 5 3 5 12
4 5 8 10 12 8 6 7 7 5 6 5 7 8 6 6 5 4 3 6 9 10 10 9 11 12 13 14 15 13 13 14 11 10 10 10 11 11 12 12 12 13 15 14 10 12 12 10 14
8 5 8 5 6 7 3 8 7 7 2 4 6 6 4 5 4 3 4 9 10 10 8 9 11 11 12 15 14 13 15 15 13 10 10 10 10 10 10 11 11 10 12 13 13 15 14 13 12
4 7 4 3 4 5 4 6 8 8 7 9 10 4 3 3 3 2 3 7 9 9 8 9 9 11 11 11 12 14 16 18 13 10 8 10 11 10 9 10 9 8 9 11 13 12 12 11 10
11 7 6 8 4 4 4 6 7 9 11 11 9 3 2 2 1 2 5 8 9 8 7 8 9 10 9 11 11 12 15 16 12 11 9 9 10 10 9 8 7 7 8 7 9 10 10 9 8
Wind_Direction
95 89 196 248 155 97 79 83 137 103 70 59 66 74 72 53 1 79 108 81 94 101 103 96 94 87 83 99 113 120 129 140 170 278 227 158 164 158 145 139 134 129 123 114 119 120 118 112 123
116 98 243 222 157 104 78 101 80 81 94 93 89 96 79 73 73 94 104 77 75 81 90 91 87 81 73 68 67 67 76 93 109 133 152 141 144 148 144 140 136 128 123 114 116 122 124 126 134
89 69 292 23 34 66 103 80 98 100 119 132 105 71 50 25 60 88 82 81 75 69 71 82 78 74 61 56 54 53 57 60 89 112 122 133 140 144 146 145 139 129 121 108 104 115 126 142 144
305 172 98 79 86 80 94 103 118 115 85 94 108 84 78 33 74 101 92 80 74 67 64 69 67 64 56 42 55 56 53 48 50 102 135 153 159 154 154 153 146 140 136 123 120 118 129 154 167
335 234 107 96 92 95 84 117 96 94 83 114 105 85 80 54 85 83 78 75 70 67 62 64 64 56 39 41 50 57 61 62 49 17 12 173 172 175 177 181 180 168 165 166 166 156 157 169 186
207 244 136 105 104 94 80 85 106 99 90 96 101 95 65 71 82 75 76 73 71 71 73 67 63 63 61 55 51 54 58 59 69 42 348 270 236 221 211 213 215 215 220 235 245 244 234 222 219
323 61 83 109 114 117 91 75 72 98 100 54 73 87 97 108 83 77 76 76 69 59 57 60 65 63 59 58 44 27 40 35 22 343 311 302 280 269 253 250 252 252 251 251 256 264 268 257 247
33 107 129 121 143 114 113 100 75 28 69 77 37 106 87 101 114 100 88 87 70 62 60 55 48 56 55 47 34 31 20 25 2 333 314 305 321 299 301 276 273 260 262 263 258 256 256 263 262
234 130 75 69 122 131 146 126 79 75 79 63 75 97 116 116 111 95 83 67 58 60 57 54 52 48 49 44 35 23 15 358 347 336 336 333 314 307 306 277 276 275 271 265 265 262 259 262 267
328 69 58 55 101 132 141 114 124 109 93 87 86 101 116 113 104 97 84 79 71 64 55 45 41 38 31 29 20 15 15 2 351 341 331 309 304 294 285 284 286 283 281 278 272 266 263 261 255
18 92 96 98 105 115 110 100 101 115 67 81 99 97 100 103 102 92 88 90 77 68 63 51 46 46 36 26 31 20 7 8 1 356 346 333 326 308 299 288 283 273 276 270 275 268 263 262 259
110 89 108 114 117 126 109 112 80 78 99 110 108 107 108 102 92 89 87 81 68 66 60 52 45 34 28 21 12 3 356 355 349 341 342 327 313 298 306 309 302 299 294 285 277 273 264 262 265
107 109 109 118 117 111 110 85 97 97 109 106 106 107 106 102 98 93 89 79 71 58 51 47 36 24 18 13 6 357 353 344 345 340 335 329 308 295 296 288 293 294 301 309 311 298 285 272 266
125 116 115 117 111 110 108 113 89 116 119 110 111 108 110 108 105 99 89 79 64 57 44 31 18 2 360 355 349 348 339 341 334 332 326 333 306 279 285 280 284 282 281 284 288 288 295 296 297
126 122 126 136 146 138 122 86 101 132 131 124 116 115 112 111 103 99 89 67 52 35 23 7 6 352 339 343 341 337 331 329 324 322 323 324 315 302 286 274 268 270 272 293 296 293 294 288 274
156 159 164 155 169 175 232 122 151 153 151 133 134 132 126 121 114 103 76 43 23 16 359 348 342 343 332 330 332 329 323 325 320 321 319 313 312 303 295 290 282 269 283 287 287 290 289 286 279
196 254 201 178 194 171 233 114 159 168 151 148 159 151 149 141 129 112 32 342 343 344 345 342 336 334 327 328 328 330 324 328 328 324 319 311 314 301 295 280 277 278 280 280 283 285 282 282 278
11 228 200 198 183 214 198 97 154 197 170 174 166 162 160 158 159 175 335 339 3 349 338 331 336 330 330 334 331 329 332 329 328 325 316 320 313 310 301 292 279 278 265 264 268 275 275 277 274
292 249 185 112 97 240 228 156 165 153 172 177 165 167 171 178 186 218 19 14 359 3 356 348 337 334 344 341 341 340 339 340 335 330 329 328 316 310 304 298 295 303 289 290 296 289 282 278 271
158 142 134 128 167 252 188 161 162 165 190 177 172 168 176 181 179 111 27 20 28 16 1 352 349 348 352 353 349 343 339 342 339 335 336 335 325 318 305 295 293 295 289 290 288 281 279 280 271
159 207 170 347 165 226 196 182 182 177 178 179 176 174 160 163 136 91 54 40 28 7 359 353 353 355 354 357 348 347 350 344 339 346 343 340 340 331 318 303 295 282 279 288 291 288 275 281 283
211 314 190 165 184 277 202 335 174 180 177 181 174 172 146 141 123 115 89 55 22 5 354 351 354 358 354 355 357 358 357 350 350 351 352 356 358 350 342 321 296 295 280 287 294 291 283 278 288
59 78 169 183 242 208 194 260 109 181 205 193 177 158 144 136 135 124 96 59 16 2 357 354 358 353 356 360 0 4 357 356 354 356 6 6 0 5 10 8 1 337 303 299 307 318 310 298 305
136 123 170 205 234 242 93 223 105 179 229 148 152 156 147 143 145 139 113 56 8 357 355 355 356 354 355 358 3 4 1 1 357 359 355 354 8 8 15 17 9 354 339 312 314 320 311 302 300
215 222 265 267 188 302 80 251 49 108 116 148 152 139 143 152 152 132 93 19 3 357 358 356 352 352 356 355 358 0 359 1 356 354 354 4 2 7 20 26 17 36 6 344 335 319 339 338 318
233 301 293 305 317 328 131 337 78 84 102 107 142 139 145 146 143 123 64 23 7 354 355 357 354 353 354 352 351 352 356 359 354 345 346 347 352 357 3 22 29 27 24 21 31 79 37 60 65
85 257 6 291 253 259 62 81 88 114 118 121 118 146 158 147 146 126 53 20 6 357 350 355 354 354 357 352 353 359 354 353 348 348 351 336 348 360 3 6 0 11 20 36 50 65 83 96 85
8 17 302 276 310 333 98 72 60 31 81 99 188 206 168 161 141 88 21 15 359 355 354 351 354 358 2 3 8 9 6 1 359 4 352 349 354 1 1 0 0 14 26 45 63 69 75 78 80
330 16 352 307 342 301 304 78 26 30 20 5 359 22 179 163 142 72 4 8 342 351 354 353 355 0 6 3 7 9 13 11 5 11 360 356 0 2 359 357 2 13 31 43 51 57 52 56 61
54 18 356 339 84 47 312 76 35 22 22 1 8 52 148 150 116 354 4 351 343 347 353 350 353 359 1 349 360 353 7 9 19 16 15 9 4 2 5 7 15 11 29 46 46 41 34 30 30